Weather reports worldwide

Advertisment
Lille, France (7015): temperature & dewpoint: 18.06.2018 16:00:00 - 24.06.2018 16:00:00 (CEST)Lille, France (7015): temperature 5cm: 18.06.2018 16:00:00 - 24.06.2018 16:00:00 (CEST)Lille, France (7015): temperature -20cm & temperature -100cm: 18.06.2018 16:00:00 - 24.06.2018 16:00:00 (CEST)Lille, France (7015): wind speed & gusts: 18.06.2018 16:00:00 - 24.06.2018 16:00:00 (CEST)Lille, France (7015): wind direction: 18.06.2018 16:00:00 - 24.06.2018 16:00:00 (CEST)Lille, France (7015): reduced air pressure: 18.06.2018 16:00:00 - 24.06.2018 16:00:00 (CEST)Lille, France (7015): visibility: 18.06.2018 16:00:00 - 24.06.2018 16:00:00 (CEST)Lille, France (7015): sunshine duration: 18.06.2018 16:00:00 - 24.06.2018 16:00:00 (CEST)Lille, France (7015): precipitation: 18.06.2018 16:00:00 - 24.06.2018 16:00:00 (CEST)
Date & Time tt [°C] td [°C] tt 5cm [°C] tt -20cm [°C] tt -100cm [°C] ff [km/h] ff [kn] fx [km/h] fx [kn] dd ppp [hPa] vv [km] sd [min] rr [mm]
24.06.2018 16:00:00 21,3 8,5 27,4 21,7 16,9 16 9 32 17 NNW 1023,9 28 60 0,0
24.06.2018 15:00:00 20,8 8,4 27,4 20,9 16,9 16 8 29 16 NNE 1024,1 28 60 0,0
24.06.2018 14:00:00 20,6 8,9 26,8 20,0 16,9 14 8 29 16 N 1024,6 22 60 0,0
24.06.2018 13:00:00 19,2 8,2 24,1 19,1 16,9 13 7 33 18 N 1024,8 22 57 0,0
24.06.2018 12:00:00 19,0 9,7 24,4 18,4 16,9 20 11 34 19 N 1024,7 23 58 0,0
24.06.2018 11:00:00 17,9 9,3 21,6 17,8 16,9 16 8 27 14 NNW 1024,7 25 60 0,0
24.06.2018 10:00:00 16,6 9,0 20,2 17,4 16,9 11 6 21 12 N 1024,9 25 60 0,0
24.06.2018 09:00:00 15,6 9,9 17,6 17,2 16,9 11 6 21 12 N 1024,9 23 60 0,0
24.06.2018 08:00:00 14,2 10,0 11,9 17,2 16,9 10 6 18 10 N 1024,8 20 60 0,0
24.06.2018 07:00:00 11,0 8,6 9,0 17,3 16,9 4 2 9 5 SW 1024,4 11 29 0,0
24.06.2018 06:00:00 10,4 8,0 8,1 17,7 16,9 4 2 9 5 WNW 1024,3 14 0 0,0
24.06.2018 05:00:00 10,9 7,6 8,6 18,0 16,9 9 5 10 5 WNW 1024,1 22 0 0,0
24.06.2018 04:00:00 12,2 7,5 8,1 18,4 16,9 3 2 6 3 WNW 1024,6 33 0 0,0
24.06.2018 03:00:00 12,9 7,1 8,2 18,8 16,9 3 2 7 4 N 1025,0 36 0 0,0
24.06.2018 02:00:00 13,3 6,4 8,9 19,2 16,9 4 2 11 6 WSW 1025,4 43 0 0,0
24.06.2018 01:00:00 14,3 6,6 12,8 19,7 16,9 9 5 16 8 NE 1025,6 47 0 0,0
24.06.2018 00:00:00 14,9 6,7 10,8 20,2 16,9 11 6 16 8 N 1025,8 59 0 0,0
23.06.2018 23:00:00 15,9 4,6 12,5 20,9 16,9 9 5 19 10 NNW 1025,8 60 0 0,0
23.06.2018 22:00:00 17,5 6,7 16,6 21,5 16,9 13 7 26 14 NNW 1025,2 51 0 0,0
23.06.2018 21:00:00 18,9 6,7 18,8 22,1 16,9 18 10 27 15 NNW 1025,2 53 0 0,0
23.06.2018 20:00:00 20,2 9,4 21,4 22,5 16,9 16 8 29 15 NW 1025,3 39 17 0,0
23.06.2018 19:00:00 21,6 4,6 22,4 22,7 16,9 19 10 30 16 WNW 1025,6 57 11 0,0
23.06.2018 18:00:00 22,2 6,0 25,0 22,5 16,9 21 12 31 17 W 1025,9 36 51 0,0
23.06.2018 17:00:00 22,3 8,4 22,9 22,1 16,9 8 5 29 15 W 1026,3 20 13 0,0
23.06.2018 16:00:00 21,4 6,5 24,6 21,6 16,9 11 6 26 14 WNW 1027,1 50 46 0,0
23.06.2018 15:00:00 20,7 6,2 23,9 20,8 16,9 11 6 33 18 W 1027,6 45 38 0,0
23.06.2018 14:00:00 20,6 6,9 26,4 19,8 16,9 11 6 28 15 WNW 1028,3 45 58 0,0
23.06.2018 13:00:00 20,1 6,4 26,5 18,6 16,9 7 4 23 13 WNW 1028,7 48 60 0,0
23.06.2018 12:00:00 19,5 7,9 24,5 17,6 16,9 7 4 20 11 NNW 1029,0 46 60 0,0
23.06.2018 11:00:00 17,9 6,4 23,5 16,7 16,9 10 5 20 11 NNE 1029,0 35 60 0,0
23.06.2018 10:00:00 16,0 7,2 19,2 16,1 16,9 9 5 22 12 N 1029,5 37 56 0,0
23.06.2018 09:00:00 13,6 8,4 16,1 15,9 16,9 6 3 13 7 W 1029,6 19 60 0,0
23.06.2018 08:00:00 10,8 7,5 9,0 15,8 16,9 6 4 11 6 W 1029,7 16 60 0,0
23.06.2018 07:00:00 8,4 7,2 5,8 16,0 16,9 3 2 15 8 WSW 1029,6 16 30 0,0
23.06.2018 06:00:00 6,6 5,2 4,4 16,3 16,9 10 5 12 7 WNW 1029,9 14 0 0,0
23.06.2018 05:00:00 7,0 5,3 4,3 16,6 16,9 7 4 8 5 W 1029,6 17 0 0,0
23.06.2018 04:00:00 7,7 5,5 3,7 17,1 16,9 5 3 9 5 WNW 1029,5 20 0 0,0
23.06.2018 03:00:00 8,5 5,8 3,3 17,5 16,9 4 2 9 5 NW 1029,7 20 0 0,0
23.06.2018 02:00:00 9,0 5,6 3,8 18,1 17,0 4 2 6 4 NW 1030,0 31 0 0,0
23.06.2018 01:00:00 10,1 6,1 8,1 18,7 16,9 6 4 15 8 N 1030,2 36 0 0,0
23.06.2018 00:00:00 11,0 5,9 9,9 19,2 16,9 11 6 17 9 N 1030,5 39 0 0,0
22.06.2018 23:00:00 12,0 5,4 10,9 19,9 17,0 13 7 23 12 N 1030,3 47 0 0,0
22.06.2018 22:00:00 13,3 5,0 12,6 20,7 16,9 15 8 35 19 NNW 1029,8 54 0 0,0
22.06.2018 21:00:00 15,1 5,3 16,7 21,4 17,0 20 11 38 20 N 1029,6 12 46 0,0
22.06.2018 20:00:00 16,2 5,5 19,6 21,9 16,9 23 12 46 25 N 1029,6 12 60 0,0
22.06.2018 19:00:00 17,2 5,5 21,5 22,0 16,9 27 15 45 25 NNW 1029,5 13 60 0,0
22.06.2018 18:00:00 18,0 5,9 23,4 21,9 17,0 25 13 41 22 NNW 1029,2 14 60 0,0
22.06.2018 17:00:00 18,6 6,4 24,3 21,5 16,9 28 15 44 24 NNW 1029,3 14 60 0,0
22.06.2018 16:00:00 18,0 5,2 25,0 20,8 16,9 28 15 46 25 NNW 1029,3 15 60 0,0
22.06.2018 15:00:00 18,3 6,2 24,7 20,0 16,9 24 13 47 26 NNW 1029,1 16 60 0,0
22.06.2018 14:00:00 18,6 6,4 24,7 19,1 16,9 27 14 45 24 NNW 1029,2 18 60 0,0
22.06.2018 13:00:00 18,4 6,6 21,6 18,2 16,9 27 14 45 25 N 1029,0 20 57 0,0
22.06.2018 12:00:00 17,6 6,8 21,7 17,4 16,9 26 14 48 26 NNW 1029,1 24 54 0,0
22.06.2018 11:00:00 17,5 7,5 17,2 16,6 16,9 27 15 44 24 NNW 1029,0 29 47 0,0
22.06.2018 10:00:00 15,8 8,0 17,5 16,1 16,9 22 12 36 19 NW 1028,9 20 54 0,0
22.06.2018 09:00:00 14,2 9,4 15,9 15,8 16,9 18 10 28 15 W 1028,7 30 60 0,0
22.06.2018 08:00:00 11,6 7,1 9,4 15,8 16,9 11 6 20 11 W 1028,7 35 60 0,0
22.06.2018 07:00:00 8,7 6,3 6,9 16,0 16,9 6 3 17 9 WSW 1028,6 20 30 0,0
22.06.2018 06:00:00 7,0 5,5 5,1 16,2 16,9 11 6 16 8 W 1028,7 36 0 0,0
22.06.2018 05:00:00 6,8 5,1 4,9 16,5 16,9 10 6 14 8 W 1028,7 40 0 0,0
22.06.2018 04:00:00 6,8 4,5 4,4 16,9 16,9 8 4 10 5 W 1028,4 53 0 0,0
22.06.2018 03:00:00 7,5 4,3 4,1 17,3 16,9 8 4 13 7 W 1028,3 60 0 0,0
22.06.2018 02:00:00 8,5 3,9 4,3 17,8 16,9 10 5 12 7 WSW 1028,4 59 0 0,0
22.06.2018 01:00:00 10,1 3,1 4,6 18,3 16,9 6 4 10 6 NW 1028,4 54 0 0,0
22.06.2018 00:00:00 10,6 3,4 8,0 18,8 16,9 9 5 20 11 NNW 1028,6 60 0 0,0
21.06.2018 23:00:00 11,4 3,2 9,1 19,4 16,9 14 8 28 15 N 1028,4 60 0 0,0
21.06.2018 22:00:00 12,5 3,2 11,1 20,1 16,9 17 9 47 25 N 1027,9 60 0 0,0
21.06.2018 21:00:00 14,2 2,1 15,6 20,6 16,9 22 12 45 24 N 1027,8 16 54 0,0
21.06.2018 20:00:00 15,1 4,2 18,6 20,9 16,9 27 14 49 26 N 1027,4 18 60 0,0
21.06.2018 19:00:00 15,7 4,7 15,7 21,0 16,9 31 17 48 26 N 1026,9 23 34 0,0
21.06.2018 18:00:00 15,4 3,8 16,9 21,2 16,9 30 16 50 27 N 1026,6 19 28 0,0
21.06.2018 17:00:00 15,9 5,5 17,4 21,2 16,8 29 16 46 25 N 1026,1 21 16 0,0
21.06.2018 16:00:00 16,7 5,0 19,7 20,9 16,8 26 14 48 26 NNW 1025,2 16 44 0,0
21.06.2018 15:00:00 17,1 6,3 19,5 20,3 16,9 28 15 48 26 NNW 1024,7 16 32 0,0
21.06.2018 14:00:00 17,3 6,5 19,3 19,8 16,9 30 16 48 26 NW 1024,0 18 39 0,0
21.06.2018 13:00:00 16,7 6,2 20,2 19,3 16,9 25 14 45 24 NW 1023,5 19 45 0,0
21.06.2018 12:00:00 16,6 6,4 19,4 18,8 16,8 24 13 41 22 NNW 1022,9 21 49 0,0
21.06.2018 11:00:00 16,1 6,8 18,0 18,5 16,8 26 14 51 27 NNW 1022,5 23 49 0,0
21.06.2018 10:00:00 14,8 7,3 16,2 18,4 16,8 25 14 46 25 NNW 1022,0 25 37 0,0
21.06.2018 09:00:00 14,6 8,1 15,3 18,5 16,8 29 16 47 26 NW 1021,4 26 48 0,0
21.06.2018 08:00:00 14,1 7,8 14,5 18,7 16,8 29 16 50 27 NW 1020,6 27 12 0,0
21.06.2018 07:00:00 14,9 10,9 14,8 18,9 16,8 30 16 48 26 NW 1019,7 38 0 0,0
21.06.2018 06:00:00 15,0 13,5 15,1 19,0 16,8 23 12 36 19 WNW 1019,0 18 0 0,0
21.06.2018 05:00:00 15,0 14,0 14,6 19,2 16,8 20 11 33 18 W 1018,4 18 0 0,0
21.06.2018 04:00:00 14,7 13,9 13,9 19,6 16,8 14 8 23 13 W 1018,5 27 0 0,0
21.06.2018 03:00:00 14,7 13,4 14,2 20,0 16,8 12 7 23 13 WSW 1018,6 33 0 0,0
21.06.2018 02:00:00 15,1 13,5 14,4 20,5 16,8 10 6 22 12 WSW 1018,9 30 0 0,0
21.06.2018 01:00:00 16,0 14,0 15,2 21,0 16,9 12 7 18 10 WSW 1018,8 38 0 0,0
21.06.2018 00:00:00 17,0 14,5 16,2 21,6 16,8 10 6 14 7 WSW 1019,2 37 0 0,0
20.06.2018 23:00:00 18,3 14,0 17,3 22,3 16,9 10 6 18 10 SW 1019,4 43 0 0,0
20.06.2018 22:00:00 20,1 13,8 19,1 23,0 16,8 9 5 26 14 WSW 1019,2 53 0 0,0
20.06.2018 21:00:00 22,7 14,0 23,5 23,6 16,8 18 10 28 15 W 1019,2 25 35 0,0
20.06.2018 20:00:00 24,5 14,3 26,9 23,9 16,8 16 8 30 16 W 1019,2 14 60 0,0
20.06.2018 19:00:00 25,4 14,8 28,8 23,9 16,8 18 10 30 16 W 1019,5 15 60 0,0
20.06.2018 18:00:00 25,6 15,9 28,6 23,4 16,8 16 9 29 16 WSW 1019,9 16 53 0,0
20.06.2018 17:00:00 24,7 15,6 29,5 22,6 16,8 15 8 29 16 W 1020,4 16 60 0,0
20.06.2018 16:00:00 24,4 16,9 25,7 21,6 16,8 14 8 28 15 SW 1020,7 18 50 0,0
20.06.2018 15:00:00 22,9 16,0 25,4 20,7 16,8 17 9 31 17 WSW 1021,4 21 18 0,0
20.06.2018 14:00:00 22,3 16,3 24,2 19,9 16,8 18 10 32 17 WSW 1021,9 23 32 0,0
20.06.2018 13:00:00 21,0 15,8 22,5 19,3 16,8 16 9 28 15 WSW 1022,3 27 11 0,0
20.06.2018 12:00:00 20,0 16,0 21,0 18,8 16,8 17 9 29 16 WSW 1022,6 20 0 0,0
20.06.2018 11:00:00 18,8 15,5 19,3 18,5 16,8 14 7 25 13 SW 1022,9 32 0 0,0
20.06.2018 10:00:00 17,9 15,3 18,0 18,3 16,8 16 8 25 14 SW 1023,0 30 0 0,0
20.06.2018 09:00:00 17,1 15,1 17,1 18,3 16,8 12 7 23 13 SW 1022,9 21 0 0,0
20.06.2018 08:00:00 16,7 15,1 17,0 18,3 16,8 14 8 24 13 SW 1022,9 20 0 0,0
20.06.2018 07:00:00 16,8 14,8 16,6 18,3 16,8 13 7 21 11 SSW 1022,8 35 0 0,0
20.06.2018 06:00:00 16,5 14,5 16,3 18,4 16,8 10 6 19 11 SSW 1023,0 50 0 0,0
20.06.2018 05:00:00 16,4 14,4 16,3 18,5 16,8 8 4 21 11 SSW 1023,1 54 0 0,0
20.06.2018 04:00:00 16,7 14,5 16,6 18,6 16,8 8 5 19 11 SW 1023,4 60 0 0,0
20.06.2018 03:00:00 17,0 14,5 16,8 18,7 16,8 10 6 19 11 SW 1023,7 60 0 0,0
20.06.2018 02:00:00 17,1 14,4 17,0 18,8 16,8 14 7 24 13 WSW 1024,1 60 0 0,0
20.06.2018 01:00:00 17,3 14,6 17,2 18,9 16,8 11 6 19 10 WSW 1024,4 60 0 0,0
20.06.2018 00:00:00 17,5 14,4 17,4 19,1 16,8 9 5 21 11 WSW 1024,6 60 0 0,0
19.06.2018 23:00:00 17,8 14,3 17,6 19,2 16,8 16 9 27 14 WSW 1024,8 60 0 0,0
19.06.2018 22:00:00 18,2 14,5 18,1 19,5 16,8 15 8 25 13 WSW 1024,4 60 0 0,0
19.06.2018 21:00:00 18,6 14,7 18,5 19,6 16,8 16 9 27 15 WSW 1024,5 60 0 0,0
19.06.2018 20:00:00 18,9 15,0 19,0 19,7 16,8 15 8 27 14 SW 1024,6 58 0 0,0
19.06.2018 19:00:00 19,3 15,0 19,6 19,8 16,8 16 9 27 15 WSW 1024,6 57 0 0,0
19.06.2018 18:00:00 19,7 15,3 20,0 19,9 16,8 16 9 24 13 WSW 1024,8 57 0 0,0
19.06.2018 17:00:00 19,7 15,3 20,0 19,8 16,8 13 7 22 12 WSW 1024,9 54 0 0,0
19.06.2018 16:00:00 20,1 15,3 21,1 19,6 16,8 14 7 26 14 WSW 1025,0 54 0 0,0
19.06.2018 15:00:00 19,6 14,8 20,8 19,4 16,8 18 10 27 15 W 1025,1 57 0 0,0
19.06.2018 14:00:00 19,7 14,5 20,6 19,1 16,8 17 9 28 15 SW 1025,1 52 0 0,0
19.06.2018 13:00:00 19,6 14,8 20,1 18,8 16,8 16 8 27 15 SW 1025,1 48 0 0,0
19.06.2018 12:00:00 18,8 15,1 19,5 18,5 16,8 17 9 27 15 WSW 1025,0 51 0 0,0
19.06.2018 11:00:00 18,1 15,0 18,7 18,3 16,9 16 9 27 15 SW 1024,9 44 0 0,0
19.06.2018 10:00:00 17,7 15,0 17,7 18,1 16,9 15 8 27 15 SW 1025,0 37 0 0,0
19.06.2018 09:00:00 17,1 14,7 17,1 18,1 16,9 17 9 26 14 WSW 1024,5 36 0 0,0
19.06.2018 08:00:00 16,8 14,8 16,6 18,0 16,9 15 8 24 13 SW 1024,2 42 0 0,0
19.06.2018 07:00:00 16,4 14,6 16,2 18,0 16,8 16 9 24 13 SW 1023,9 45 0 0,0
19.06.2018 06:00:00 16,2 14,6 16,2 18,1 16,9 14 8 24 13 SW 1023,6 37 0 0,0
19.06.2018 05:00:00 16,3 14,5 16,2 18,1 16,8 12 7 30 16 WSW 1023,1 41 0 0,0
19.06.2018 04:00:00 16,2 14,4 15,7 18,2 16,8 20 11 35 19 WSW 1022,9 45 0 0,0
19.06.2018 03:00:00 15,7 14,2 15,1 18,4 16,8 13 7 24 13 WSW 1022,7 30 0 0,0
19.06.2018 02:00:00 15,8 13,8 15,1 18,6 16,8 13 7 29 16 SW 1022,6 42 0 0,0
19.06.2018 01:00:00 15,6 13,3 14,8 18,8 16,9 14 8 29 16 SW 1022,8 47 0 0,0
19.06.2018 00:00:00 15,1 12,2 14,2 19,1 16,9 10 6 23 13 WSW 1023,0 47 0 0,0
18.06.2018 23:00:00 15,1 11,1 14,3 19,6 16,8 13 7 33 18 WSW 1022,9 55 0 0,0
18.06.2018 22:00:00 16,1 10,8 15,4 20,1 16,8 23 13 39 21 WSW 1022,6 57 0 0,0
18.06.2018 21:00:00 17,7 11,0 18,2 20,5 16,8 25 13 38 21 WSW 1022,1 10 46 0,0
18.06.2018 20:00:00 19,0 11,8 20,7 20,5 16,8 25 14 41 22 WSW 1021,8 9 60 0,0
18.06.2018 19:00:00 19,2 11,7 19,3 20,1 16,9 24 13 46 25 WSW 1021,7 13 42 0,0
18.06.2018 18:00:00 19,0 11,8 19,1 19,8 16,8 28 15 46 25 WSW 1021,8 29 7 0,0
18.06.2018 17:00:00 18,1 11,6 18,8 19,7 16,8 30 16 48 26 WSW 1022,1 43 2 0,0
18.06.2018 16:00:00 18,2 12,6 18,9 19,6 16,8 25 14 50 27 SW 1022,1 31 1 0,0

tt = temperature
td = dewpoint
tt 5cm = temperature 5cm
tt -20cm = temperature -20cm
tt -100cm = temperature -100cm
ff = wind speed
fx = gusts
dd = wind direction
ppp = reduced air pressure
vv = visibility
sd = sunshine duration
rr = precipitation

Next stations